TimeMDT,TemperatureF,Dew PointF,Humidity,Sea Level PressureIn,VisibilityMPH,Wind Direction,Wind SpeedMPH,Gust SpeedMPH,PrecipitationIn,Events,Conditions,WindDirDegrees,DateUTC
12:53 AM,62.1,55.9,80,29.67,10.0,SSW,10.4,-,N/A,,Clear,200,2013-09-18 06:53:00
1:53 AM,61.0,54.0,78,29.66,10.0,SSW,8.1,-,N/A,,Clear,210,2013-09-18 07:53:00
2:53 AM,57.9,53.1,84,29.66,10.0,WSW,5.8,-,N/A,,Clear,250,2013-09-18 08:53:00
3:53 AM,57.0,52.0,83,29.65,10.0,WSW,4.6,-,N/A,,Clear,240,2013-09-18 09:53:00
4:53 AM,55.9,52.0,87,29.64,10.0,WSW,8.1,-,N/A,,Clear,250,2013-09-18 10:53:00
5:53 AM,57.9,53.1,84,29.64,10.0,SW,8.1,-,0.00,,Partly Cloudy,230,2013-09-18 11:53:00
6:53 AM,57.0,53.1,87,29.70,10.0,WNW,8.1,-,N/A,,Clear,290,2013-09-18 12:53:00
7:53 AM,64.0,54.0,70,29.70,10.0,West,9.2,-,N/A,,Clear,280,2013-09-18 13:53:00
8:53 AM,70.0,54.0,57,29.68,10.0,NW,4.6,-,N/A,,Clear,320,2013-09-18 14:53:00
9:53 AM,81.0,51.1,35,29.66,10.0,WNW,11.5,-,N/A,,Clear,300,2013-09-18 15:53:00
10:53 AM,86.0,50.0,29,29.65,10.0,West,15.0,-,N/A,,Clear,280,2013-09-18 16:53:00
11:53 AM,88.0,46.0,23,29.65,10.0,WNW,15.0,24.2,N/A,,Clear,290,2013-09-18 17:53:00
12:53 PM,86.0,45.0,24,29.65,10.0,WNW,13.8,28.8,N/A,,Clear,290,2013-09-18 18:53:00
1:53 PM,87.1,45.0,23,29.64,10.0,WNW,10.4,20.7,N/A,,Clear,300,2013-09-18 19:53:00
2:53 PM,88.0,45.0,22,29.64,10.0,NW,11.5,-,N/A,,Clear,320,2013-09-18 20:53:00
3:53 PM,88.0,45.0,22,29.63,10.0,NW,10.4,-,N/A,,Clear,320,2013-09-18 21:53:00
4:53 PM,84.9,46.0,26,29.65,10.0,NNW,13.8,-,N/A,,Clear,330,2013-09-18 22:53:00
5:53 PM,78.1,52.0,40,29.65,10.0,NNW,5.8,-,N/A,,Clear,340,2013-09-18 23:53:00
6:53 PM,75.0,51.1,43,29.67,10.0,NW,13.8,-,N/A,,Scattered Clouds,320,2013-09-19 00:53:00
7:02 PM,73.4,50.0,44,29.86,8.0,West,40.3,49.5,N/A,Thunderstorm,Mostly Cloudy,270,2013-09-19 01:02:00
7:09 PM,69.8,51.8,53,29.85,6.0,West,32.2,49.5,N/A,Thunderstorm,Haze,270,2013-09-19 01:09:00
7:53 PM,64.0,54.0,70,29.80,10.0,WNW,9.2,-,0.03,Rain,Light Rain,290,2013-09-19 01:53:00
8:53 PM,62.1,55.9,80,29.75,10.0,SSE,15.0,-,0.07,Rain,Light Rain,150,2013-09-19 02:53:00
9:53 PM,64.9,54.0,68,29.71,10.0,SE,10.4,-,0.00,,Scattered Clouds,130,2013-09-19 03:53:00
10:53 PM,62.1,55.0,78,29.71,10.0,West,3.5,-,N/A,,Clear,280,2013-09-19 04:53:00
11:53 PM,62.1,55.0,78,29.70,10.0,West,5.8,-,N/A,,Clear,280,2013-09-19 05:53:00